Weather History for KMLU - August, 2013

Change the Weather History Date:

Sunday, August 11, 2013

  Actual Average Record
Temperature  
Mean Temperature 86 °F 83 °F  
Max Temperature 98 °F 95 °F 104 °F (1935)
Min Temperature 73 °F 72 °F 62 °F (1967)
Degree Days  
Heating Degree Days 0 0  
Month to date heating degree days 0 0  
Since 1 June heating degree days 0 0  
Since 1 July heating degree days 0 0  
Cooling Degree Days 21 18  
Month to date cooling degree days 235 198  
Year to date cooling degree days 1526 1658  
Since 1 June cooling degree days 1176 1223  
Growing Degree Days 34 (Base 50)    
Moisture  
Dew Point 72 °F    
Average Humidity 73    
Maximum Humidity 100    
Minimum Humidity 45    
Precipitation  
Precipitation 0.00 in 0.09 in 2.33 in (2008)
Month to date precipitation T 1.07  
Year to date precipitation 32.23 33.37  
Snow  
Snow 0.00 in - - ()
Month to date snowfall 0.0  
Since 1 June snowfall 0.0  
Since 1 July snowfall 0.0  
Snow Depth 0.00 in    
Sea Level Pressure  
Sea Level Pressure 30.06 in    
Wind  
Wind Speed 4 mph (South)    
Max Wind Speed 16 mph    
Max Gust Speed 23 mph    
Visibility 10 miles    
Events Thunderstorm    
T = Trace of Precipitation, MM = Missing Value Source: NWS Daily Summary

Daily Weather History Graph

Daily Weather History Graph

Search for Another Location

Airport or City:

Trip Planner

Search our weather history database for the weather conditions in past years. The results will help you decide how hot, cold, wet, or windy it might be!

Date:

Astronomy

Aug. 11, 2013 Rise Set
Actual Time 6:29 AM CDT 7:56 PM CDT
Civil Twilight 6:03 AM CDT 8:22 PM CDT
Nautical Twilight 5:31 AM CDT 8:53 PM CDT
Astronomical Twilight 4:59 AM CDT 9:26 PM CDT
Moon 10:57 AM CDT (8/11) 10:33 PM CDT (8/11)
Length of Visible Light 14h 19m
Length of Day
13h 27m
Waxing Crescent, 22% of the Moon is Illuminated
Aug 11
Waxing Crescent
Aug 14
First Quarter
Aug 20
Full
Aug 28
Last Quarter
Sep 5
New

Hourly Weather History & Observations

Time (CDT) Temp. Heat Index Dew Point Humidity Pressure Visibility Wind Dir Wind Speed Gust Speed Precip Events Conditions
12:53 AM 78.1 °F - 72.0 °F 81% 30.05 in 10.0 mi Calm Calm - N/A   Clear
1:53 AM 75.9 °F - 73.0 °F 91% 30.05 in 10.0 mi South 4.6 mph - N/A   Clear
2:53 AM 75.9 °F - 73.0 °F 91% 30.06 in 10.0 mi Calm Calm - N/A   Clear
3:53 AM 75.9 °F - 73.0 °F 91% 30.06 in 10.0 mi Calm Calm - N/A   Clear
4:53 AM 73.9 °F - 72.0 °F 93% 30.07 in 10.0 mi Calm Calm - N/A   Clear
5:53 AM 73.9 °F - 73.0 °F 97% 30.08 in 7.0 mi Calm Calm - N/A   Clear
6:53 AM 73.9 °F - 72.0 °F 93% 30.10 in 9.0 mi Calm Calm - N/A   Clear
7:53 AM 77.0 °F - 73.9 °F 90% 30.11 in 10.0 mi South 3.5 mph - N/A   Clear
8:53 AM 82.0 °F 87.4 °F 73.0 °F 74% 30.11 in 10.0 mi Variable 3.5 mph - N/A   Clear
9:53 AM 86.0 °F 93.8 °F 73.9 °F 67% 30.11 in 10.0 mi South 4.6 mph - N/A   Clear
10:53 AM 89.1 °F 97.0 °F 73.0 °F 59% 30.11 in 10.0 mi Variable 4.6 mph - N/A   Partly Cloudy
11:53 AM 89.1 °F 97.0 °F 73.0 °F 59% 30.10 in 10.0 mi Calm Calm - N/A   Clear
12:53 PM 93.9 °F 100.3 °F 70.0 °F 46% 30.08 in 10.0 mi Variable 3.5 mph - N/A   Clear
1:53 PM 93.0 °F 99.0 °F 70.0 °F 47% 30.06 in 10.0 mi Calm Calm - N/A   Clear
2:53 PM 95.0 °F 103.2 °F 72.0 °F 47% 30.04 in 10.0 mi SW 9.2 mph - N/A   Clear
3:53 PM 93.9 °F 100.8 °F 71.1 °F 47% 30.02 in 10.0 mi South 5.8 mph - N/A   Scattered Clouds
4:44 PM 96.8 °F 103.1 °F 69.8 °F 41% 30.01 in 10.0 mi SSE 5.8 mph - N/A Thunderstorm Partly Cloudy
4:53 PM 96.1 °F 103.5 °F 71.1 °F 44% 30.01 in 10.0 mi South 9.2 mph - N/A   Partly Cloudy
5:02 PM 93.2 °F 100.5 °F 71.6 °F 49% 30.01 in 10.0 mi NE 13.8 mph 23.0 mph N/A Thunderstorm Scattered Clouds
5:53 PM 86.0 °F 91.5 °F 71.1 °F 61% 30.04 in 10.0 mi SW 10.4 mph 23.0 mph N/A Thunderstorm Thunderstorm
6:14 PM 82.4 °F 86.3 °F 69.8 °F 66% 30.04 in 10.0 mi NW 10.4 mph - N/A Thunderstorm Thunderstorm
6:37 PM 82.4 °F 87.2 °F 71.6 °F 70% 30.04 in 10.0 mi NW 6.9 mph - N/A   Clear
6:53 PM 82.0 °F 86.3 °F 71.1 °F 69% 30.03 in 10.0 mi North 3.5 mph - N/A   Clear
7:53 PM 81.0 °F 85.2 °F 72.0 °F 74% 30.04 in 10.0 mi NE 3.5 mph - N/A   Mostly Cloudy
8:53 PM 82.0 °F 86.7 °F 72.0 °F 71% 30.06 in 10.0 mi SE 4.6 mph - N/A   Overcast
9:53 PM 81.0 °F 86.2 °F 73.9 °F 79% 30.06 in 10.0 mi SSE 4.6 mph - N/A   Clear
10:53 PM 80.1 °F 85.1 °F 75.0 °F 85% 30.07 in 10.0 mi Calm Calm - N/A   Clear
11:53 PM 78.1 °F - 73.9 °F 87% 30.07 in 10.0 mi South 4.6 mph - N/A   Clear